Location: Cucq
(50.4773°N, 1.6202°E)
Time: 10:25:51
(UTC+00:00)

Landsat 4 - Pass Details

Date: 07 August 2020
Orbit: 504 x 524 km, 98.2° (Epoch: 20 September)

Event Time Altitude Azimuth Distance (km) Brightness Sun altitude
Rises 00:14:33 0° 15° (NNE) 2,668 8.7 -23.1°
Reaches altitude 10° 00:16:40 10° 18° (NNE) 1,772 7.5 -23.1°
Enters shadow 00:20:12 69° 63° (ENE) 562 3.8 -23.0°
